KALPANA-1 (METSAT 1)

Last updated on Sun Jan 13 2019 02:58:37 GMT+0000 (Coordinated Universal Time)

1 27525U 02043A 19012.35054707 -.00000198 00000-0 00000+0 0 9992 2 27525 8.6278 51.2645 0001829 20.4153 339.6206 0.98340508 59811
UTC large
Height (km)
Speed (km/s)
/
Latitude / Longitude
Inclination (degrees)
Orbital Period (minutes)
Azimuth
Elevation
Range (km)
Doppler Factor

Next 0 passes for location: London (51.5072 / 0.1276)

Sorry there are no passes over London.
KALPANA-1 (METSAT 1)